Wind_Speed
14 10 9 13 11 10 11 6 8 7 8 6 3 1 4 2 3 2 0 3 4 4 6 9 8 4 4 4 4 5 4 4 1 2 5 5 8 8 8 10 9 9 9
11 10 13 12 12 12 9 7 8 6 5 5 3 2 4 4 3 3 4 6 5 6 8 9 8 7 6 5 4 5 5 2 1 2 3 6 8 9 8 9 10 13 12
14 14 15 13 16 12 12 8 8 6 7 6 5 2 3 4 4 4 4 5 6 6 10 10 8 5 4 5 7 8 8 5 4 5 4 5 9 11 14 13 16 16 17
17 18 16 19 16 16 12 9 9 10 8 5 4 2 3 1 5 4 3 2 5 7 10 8 7 8 6 6 9 9 8 7 7 6 3 2 5 5 6 9 12 17 20
19 18 21 19 21 17 15 12 10 8 6 6 2 2 4 4 5 7 8 6 5 5 7 9 11 11 8 11 13 14 12 9 8 8 8 9 7 8 10 12 14 15 14
24 24 25 24 20 18 15 12 10 9 5 2 3 3 4 6 7 7 5 3 3 1 6 8 8 5 11 14 16 14 14 16 15 13 12 12 10 11 16 18 20 22 25
29 28 27 24 20 16 13 10 7 7 2 3 4 6 5 4 2 1 4 4 2 7 9 12 6 11 15 12 12 14 14 16 18 18 17 14 16 16 21 22 20 20 23
29 26 23 20 16 13 12 10 9 5 2 4 4 6 4 5 5 3 1 4 4 7 8 14 13 13 14 15 16 14 16 20 24 18 16 19 20 21 23 24 27 29 23
27 24 21 18 16 16 14 11 7 4 3 3 3 3 3 5 7 8 8 3 5 3 5 5 11 17 16 16 14 16 21 24 17 14 16 21 25 26 23 17 17 19 24
26 20 17 16 15 14 13 8 5 2 1 2 4 7 7 5 4 9 12 11 8 7 10 14 15 11 12 15 18 22 25 19 17 19 18 11 9 9 10 12 17 19 21
23 20 19 18 16 13 9 5 3 3 2 2 4 5 5 4 4 4 6 10 12 12 14 13 11 13 15 20 24 25 22 18 18 20 14 12 11 11 12 15 16 19 20
21 21 20 16 15 10 5 4 2 1 1 4 6 5 7 10 8 5 5 7 10 13 19 19 15 17 20 23 26 23 19 19 22 21 20 18 16 17 17 20 21 21 21
23 23 19 16 10 10 7 5 3 7 6 3 4 8 3 3 2 6 7 9 15 22 21 17 16 18 21 21 16 17 17 20 21 22 26 27 25 22 21 22 25 23 23
23 20 15 14 11 7 4 6 9 6 5 5 5 1 4 4 2 3 11 17 19 15 17 17 13 14 19 23 25 20 19 23 27 27 30 30 32 29 28 25 31 30 28
13 7 8 10 11 8 10 9 6 3 3 5 7 9 10 10 11 11 13 10 8 12 17 17 18 20 24 26 21 19 23 26 26 23 23 26 28 26 29 30 30 30 32
24 16 24 17 13 11 11 6 9 5 2 4 6 9 9 8 11 14 9 10 12 16 19 20 21 23 26 22 19 21 20 15 15 24 33 39 44 44 40 39 38 33 30
25 29 20 14 13 11 11 4 2 5 3 2 2 7 8 14 15 15 10 14 19 22 23 22 23 20 20 16 15 11 21 29 38 43 46 49 42 32 31 32 29 29 32
24 22 15 16 11 11 10 5 3 2 1 1 1 6 7 10 16 16 15 19 21 25 23 23 17 17 18 19 24 30 35 40 46 46 42 29 26 26 28 29 31 32 32
25 19 17 15 13 12 10 8 6 4 5 1 5 7 9 12 17 17 18 22 26 20 15 13 14 17 21 25 31 34 37 43 46 31 29 26 25 29 33 32 31 29 29
19 16 18 17 11 16 15 13 7 8 7 3 5 8 11 14 18 18 18 22 18 9 15 16 20 23 27 31 34 36 41 46 31 29 25 24 22 27 30 25 21 27 20
21 24 17 16 12 12 9 9 5 5 2 2 5 9 14 16 15 17 16 9 10 19 22 20 24 27 28 31 34 40 44 31 28 25 22 17 20 22 24 20 15 15 18
23 21 15 12 9 12 9 8 3 2 2 4 7 9 10 15 15 12 6 12 20 23 22 28 24 23 27 32 35 45 34 27 26 21 17 12 14 17 19 17 15 13 5
22 22 16 11 13 12 8 7 3 3 1 1 7 10 13 11 15 12 13 21 23 24 30 20 24 26 29 33 36 39 28 26 20 16 14 9 11 14 13 14 14 11 8
18 21 15 12 9 9 12 7 6 2 2 7 8 11 8 16 14 12 20 23 26 31 18 24 25 26 30 35 37 30 23 22 16 12 14 8 9 11 12 12 11 9 8
14 17 16 11 9 8 10 9 4 2 3 7 9 8 15 12 10 18 23 26 30 20 23 24 26 28 32 32 32 24 20 20 15 11 11 11 11 12 12 12 11 11 10
3 17 16 9 14 10 9 3 4 2 3 7 10 11 12 8 16 22 26 26 23 20 23 25 26 28 31 29 25 19 15 16 13 11 11 10 11 12 11 10 10 10 8
Wind_Direction
211 213 206 187 190 177 171 184 203 211 155 152 153 263 335 40 113 144 343 344 346 360 340 339 342 351 347 327 300 281 293 320 325 251 217 211 199 196 182 172 170 169 194
213 202 177 173 161 149 139 164 168 141 159 148 140 19 23 32 20 328 325 358 2 347 316 322 340 352 343 5 360 22 31 29 296 289 255 232 220 211 210 218 218 214 204
199 193 182 172 157 150 175 179 164 149 129 137 143 108 359 18 347 354 24 360 345 327 331 341 352 352 349 5 5 12 12 7 32 34 19 319 279 265 259 256 250 245 241
193 188 182 160 161 178 188 185 178 181 189 206 222 191 181 230 317 325 319 307 278 290 322 350 21 15 9 4 347 350 343 332 328 327 328 343 338 316 315 289 262 255 260
187 181 161 161 178 191 183 183 184 187 208 231 213 279 211 259 269 288 285 299 294 325 18 9 360 352 358 7 3 357 352 352 345 325 305 290 295 292 293 294 292 283 270
181 171 175 182 188 189 196 199 210 212 212 163 197 275 283 282 288 291 262 319 65 39 342 332 341 334 351 346 348 356 359 353 345 339 330 324 314 290 286 286 287 290 293
184 185 184 187 188 191 195 193 168 168 213 233 266 284 304 332 359 264 211 193 130 322 341 3 315 320 333 338 339 337 343 348 341 322 308 307 304 304 299 301 303 300 296
190 188 189 184 184 177 166 178 179 218 258 305 314 310 334 5 20 27 275 238 219 324 303 321 325 308 300 297 306 313 322 330 327 318 283 285 288 285 286 295 298 297 297
190 184 184 184 168 170 178 191 204 216 276 301 346 335 337 348 10 29 13 352 232 332 15 357 294 296 277 278 289 308 320 329 328 322 306 289 281 279 286 291 291 291 294
188 186 180 173 179 183 191 194 206 252 304 280 349 343 338 360 41 26 22 13 351 325 307 298 300 316 280 280 300 315 324 324 318 318 326 307 295 319 303 300 303 298 292
189 187 183 184 172 186 199 205 208 240 244 244 65 28 329 328 349 2 7 2 2 353 344 327 317 314 306 301 304 309 317 314 313 321 320 315 303 296 294 297 294 300 296
189 182 180 170 179 201 209 224 227 282 284 95 81 36 330 299 304 309 330 331 330 327 332 321 312 305 304 307 310 311 304 302 301 303 302 305 307 314 304 299 306 296 294
184 183 188 184 205 208 196 218 185 111 82 43 322 317 100 110 228 261 277 307 320 324 326 324 318 308 307 316 313 310 313 305 303 296 291 298 306 309 298 290 291 297 297
180 186 208 201 208 211 196 149 162 162 264 271 153 102 6 23 147 290 320 322 326 331 333 334 325 319 324 327 325 319 315 311 311 309 305 300 295 294 297 295 288 285 288
155 202 221 249 226 209 197 196 196 164 163 276 286 293 288 291 312 323 338 348 355 342 347 344 337 333 334 334 331 326 323 310 307 308 308 305 299 299 295 291 285 280 275
219 211 234 226 217 204 200 210 194 195 287 37 36 36 44 37 6 357 352 343 329 322 325 332 337 336 333 336 330 320 309 294 305 310 311 304 301 296 290 282 273 272 265
216 218 207 215 201 188 191 177 140 178 221 296 329 29 12 4 2 6 352 328 321 315 313 320 324 332 329 341 321 308 310 318 321 316 311 310 306 294 288 280 275 271 264
183 192 212 197 166 172 187 202 224 227 265 330 80 7 334 355 356 357 340 322 326 325 317 322 330 329 330 323 318 315 316 317 320 315 313 313 310 303 296 290 285 281 278
179 196 195 183 183 193 196 204 217 253 258 286 328 331 304 316 333 346 338 331 328 329 330 332 330 318 320 324 325 323 323 319 324 323 319 320 313 303 293 282 279 279 277
187 177 169 168 179 178 188 198 229 215 238 263 307 309 296 302 320 339 337 332 330 340 341 333 328 330 331 329 328 326 325 325 327 325 327 323 332 343 332 296 286 273 262
159 155 166 176 194 206 220 167 192 165 246 279 308 312 309 320 338 341 340 347 334 338 338 332 332 331 332 331 329 330 329 330 329 331 330 339 346 349 357 5 348 321 261
162 162 148 157 157 156 173 158 150 102 114 305 295 317 345 337 339 354 353 332 335 337 334 335 337 337 332 329 331 334 334 334 335 336 345 353 4 1 357 360 6 10 339
164 169 164 166 172 185 173 166 173 181 305 296 337 344 342 360 356 341 336 336 337 335 337 345 341 334 332 332 332 337 337 339 342 349 353 356 356 354 360 12 11 15 14
148 156 156 166 168 153 154 147 168 236 346 357 349 339 345 343 347 332 333 336 336 338 349 341 340 336 332 334 335 340 342 348 351 359 8 1 357 355 357 355 350 351 345
177 146 166 176 182 162 155 164 183 189 355 334 336 341 347 351 333 338 340 338 340 349 351 343 338 334 333 334 341 342 347 352 359 5 8 10 2 351 348 341 334 335 339
144 167 172 154 155 148 146 159 143 133 346 344 345 352 342 332 337 339 339 340 344 354 351 343 341 339 338 336 337 341 349 356 2 13 26 34 32 31 27 24 25 20 25
Height
1503 1506 1509 1512 1515 1518 1520 1521 1523 1524 1525 1526 1527 1527 1526 1527 1527 1525 1525 1523 1522 1521 1520 1519 1518 1517 1517 1515 1514 1511 1510 1509 1509 1509 1510 1509 1509 1510 1511 1511 1512 1513 1513
1500 1504 1508 1510 1513 1516 1518 1521 1522 1523 1524 1525 1525 1525 1526 1526 1526 1525 1525 1524 1522 1521 1520 1519 1518 1516 1516 1515 1513 1512 1510 1508 1508 1509 1509 1509 1509 1510 1511 1511 1512 1512 1512
1499 1503 1506 1509 1512 1515 1517 1519 1520 1522 1523 1523 1525 1525 1525 1524 1524 1524 1523 1523 1521 1520 1519 1518 1517 1515 1514 1514 1513 1511 1510 1509 1507 1506 1506 1507 1507 1508 1508 1510 1510 1510 1510
1498 1502 1505 1509 1511 1514 1517 1519 1520 1521 1522 1523 1523 1523 1523 1522 1523 1522 1522 1522 1521 1519 1519 1517 1516 1514 1514 1514 1513 1512 1509 1508 1507 1506 1505 1503 1503 1504 1504 1503 1504 1504 1504
1496 1501 1504 1508 1511 1514 1515 1517 1519 1521 1522 1522 1522 1521 1521 1521 1521 1520 1520 1520 1519 1518 1517 1516 1516 1515 1515 1514 1512 1511 1509 1507 1506 1505 1503 1503 1502 1500 1500 1500 1500 1500 1500
1495 1499 1503 1506 1509 1512 1515 1516 1518 1519 1519 1520 1520 1519 1520 1520 1518 1519 1518 1518 1518 1517 1516 1514 1513 1513 1515 1514 1513 1511 1509 1508 1506 1504 1503 1501 1500 1499 1498 1498 1497 1495 1494
1495 1498 1501 1504 1507 1511 1514 1515 1516 1517 1518 1518 1518 1517 1517 1517 1516 1516 1516 1516 1516 1517 1516 1514 1512 1510 1510 1511 1511 1510 1509 1507 1506 1504 1501 1500 1498 1497 1495 1493 1493 1491 1490
1493 1498 1502 1504 1507 1510 1512 1513 1515 1516 1517 1517 1517 1515 1515 1515 1515 1515 1516 1515 1514 1514 1513 1513 1512 1510 1509 1509 1508 1507 1506 1504 1503 1500 1498 1495 1494 1492 1492 1490 1487 1485 1484
1491 1495 1498 1501 1503 1506 1508 1510 1512 1513 1514 1514 1514 1513 1513 1514 1515 1515 1515 1514 1512 1511 1510 1509 1509 1507 1506 1505 1504 1503 1501 1498 1497 1496 1494 1491 1488 1487 1487 1484 1482 1481 1479
1490 1495 1499 1500 1503 1505 1507 1507 1508 1511 1511 1511 1512 1513 1513 1513 1513 1513 1513 1513 1511 1510 1508 1507 1505 1503 1502 1502 1501 1498 1495 1494 1492 1490 1489 1486 1484 1483 1482 1481 1479 1477 1476
1487 1491 1495 1497 1499 1503 1506 1509 1509 1508 1511 1511 1510 1512 1512 1512 1511 1511 1511 1510 1509 1508 1506 1503 1501 1500 1500 1498 1496 1494 1492 1490 1488 1485 1483 1482 1481 1479 1478 1477 1476 1474 1471
1486 1491 1494 1498 1500 1502 1505 1507 1508 1509 1509 1510 1510 1511 1512 1510 1511 1511 1510 1509 1508 1507 1503 1500 1498 1497 1496 1494 1491 1488 1487 1485 1482 1480 1478 1477 1475 1473 1472 1470 1469 1467 1466
1483 1488 1491 1494 1495 1498 1495 1503 1506 1509 1510 1509 1508 1508 1508 1508 1508 1509 1508 1507 1505 1503 1499 1496 1494 1492 1491 1489 1486 1484 1481 1479 1477 1475 1473 1470 1468 1466 1464 1463 1462 1460 1459
1483 1488 1489 1491 1494 1496 1500 1503 1505 1504 1509 1510 1508 1506 1506 1506 1507 1506 1505 1504 1502 1499 1496 1493 1491 1489 1486 1484 1481 1479 1476 1474 1472 1469 1466 1463 1462 1460 1457 1455 1453 1452 1450
1479 1489 1494 1494 1495 1494 1500 1503 1503 1502 1506 1507 1507 1506 1505 1505 1505 1504 1502 1501 1499 1496 1494 1491 1488 1485 1481 1477 1475 1473 1471 1469 1467 1463 1460 1457 1455 1452 1449 1446 1443 1442 1440
1481 1481 1482 1485 1491 1494 1498 1501 1504 1504 1506 1507 1506 1506 1504 1503 1502 1502 1500 1499 1497 1493 1490 1486 1483 1481 1477 1473 1469 1467 1465 1463 1461 1458 1454 1450 1445 1440 1436 1434 1433 1432 1428
1471 1472 1480 1483 1487 1493 1496 1499 1502 1503 1504 1505 1506 1505 1504 1502 1500 1499 1498 1496 1493 1490 1485 1482 1479 1475 1472 1467 1466 1464 1462 1458 1452 1447 1441 1436 1430 1425 1423 1421 1420 1418 1416
1462 1474 1478 1482 1486 1491 1494 1497 1501 1502 1502 1502 1503 1503 1501 1500 1498 1496 1494 1492 1489 1485 1482 1478 1474 1471 1467 1465 1461 1458 1453 1448 1443 1435 1429 1424 1421 1418 1414 1411 1409 1407 1405
1465 1470 1476 1481 1486 1489 1494 1496 1499 1499 1500 1499 1500 1499 1499 1498 1496 1493 1490 1488 1484 1480 1478 1475 1472 1469 1465 1461 1457 1452 1446 1439 1432 1425 1421 1416 1413 1408 1403 1399 1396 1395 1394
1465 1472 1477 1482 1486 1488 1491 1494 1497 1497 1498 1498 1498 1497 1497 1496 1493 1490 1487 1485 1482 1479 1475 1472 1469 1465 1461 1456 1451 1445 1439 1431 1423 1419 1414 1410 1406 1400 1391 1384 1384 1383 1384
1466 1472 1478 1481 1485 1487 1490 1493 1495 1495 1495 1496 1497 1496 1495 1493 1490 1487 1485 1483 1479 1476 1472 1468 1464 1460 1455 1450 1445 1439 1431 1423 1418 1413 1409 1406 1402 1396 1390 1383 1379 1376 1376
1466 1472 1476 1481 1484 1487 1490 1492 1493 1493 1493 1495 1495 1494 1493 1491 1488 1485 1483 1480 1477 1472 1468 1464 1459 1455 1451 1446 1440 1433 1425 1418 1413 1409 1406 1403 1399 1395 1390 1386 1382 1380 1379
1465 1470 1475 1480 1483 1486 1488 1491 1493 1493 1492 1493 1493 1492 1491 1488 1486 1483 1480 1477 1473 1469 1464 1460 1456 1452 1447 1442 1435 1428 1421 1415 1410 1406 1403 1400 1398 1394 1391 1387 1385 1382 1380
1467 1469 1475 1479 1483 1485 1487 1489 1491 1492 1492 1491 1491 1490 1488 1486 1483 1480 1478 1474 1470 1465 1461 1457 1453 1448 1443 1437 1431 1424 1418 1413 1409 1406 1402 1399 1396 1394 1391 1388 1386 1384 1382
1472 1471 1475 1478 1482 1485 1486 1487 1489 1491 1491 1490 1489 1487 1486 1483 1481 1478 1474 1471 1467 1462 1458 1454 1449 1445 1439 1433 1427 1422 1417 1412 1408 1405 1402 1399 1396 1393 1391 1388 1386 1383 1381
1469 1470 1474 1478 1481 1484 1485 1486 1488 1489 1490 1489 1487 1485 1483 1480 1478 1475 1472 1468 1463 1460 1456 1451 1446 1441 1435 1429 1424 1419 1416 1412 1408 1405 1402 1400 1397 1394 1392 1390 1387 1384 1382